Theta_e
288 289 290 290 290 291 290 290 290 291 292 293 293 292 292 292 293 291 290 290 289 288 288 287 285 286 286 287 287 287 287 290 290 284 284 281 279 279 280 281 281 281 282
286 287 288 287 287 287 287 287 288 288 289 289 289 288 288 288 288 287 285 285 285 284 284 284 283 284 283 283 284 283 283 285 288 284 280 279 278 279 280 280 280 280 280
285 286 285 285 285 284 285 285 286 286 286 286 286 285 285 285 284 284 283 283 282 282 282 281 281 281 281 281 281 281 281 281 283 283 277 279 279 279 279 279 279 280 279
284 284 283 283 283 283 283 284 284 285 285 284 284 283 283 283 283 283 282 282 282 282 282 282 281 281 280 280 280 280 280 280 280 279 277 277 278 278 278 277 277 279 278
282 282 281 282 282 282 282 282 283 283 284 284 284 284 284 283 282 282 281 281 280 280 280 281 281 282 284 282 280 279 279 279 278 277 276 277 276 276 274 276 276 276 277
281 280 281 281 281 281 281 281 281 281 282 282 282 283 283 283 285 284 282 280 280 279 278 278 279 280 282 283 283 283 280 277 276 276 275 274 274 275 276 275 274 273 272
278 278 279 279 279 279 279 279 279 279 280 280 280 281 281 283 284 283 282 280 279 279 279 278 277 278 278 278 280 280 280 280 279 276 275 274 274 275 275 274 273 272 272
277 277 277 277 277 277 278 278 278 279 279 279 279 280 280 281 283 282 281 279 279 278 279 279 279 279 278 277 277 276 277 278 277 277 276 276 276 277 276 274 272 271 271
275 276 276 277 276 276 276 276 277 277 278 278 278 279 279 280 282 281 279 278 277 277 278 279 279 279 280 279 276 275 275 275 278 278 277 276 276 277 276 273 270 268 268
275 275 275 276 276 275 275 275 276 277 277 277 277 277 277 279 282 281 279 278 276 276 277 277 280 279 281 279 276 275 274 274 274 273 273 272 273 273 273 272 271 267 266
275 275 275 275 275 275 275 275 275 275 275 275 274 275 275 276 279 281 280 278 277 276 275 275 277 279 279 279 277 275 275 274 271 270 270 270 271 271 271 271 270 268 267
273 273 273 273 275 275 274 274 274 273 272 272 272 272 273 274 278 280 280 278 278 276 274 275 275 278 278 277 276 276 275 270 269 268 268 268 268 268 269 268 267 267 268
273 272 272 272 274 273 273 272 272 272 271 271 271 270 270 272 273 278 278 278 277 274 275 275 277 276 276 273 274 273 268 268 267 267 266 267 267 267 266 265 265 265 264
271 270 270 270 270 270 272 272 271 270 270 270 270 269 269 270 271 271 273 273 274 274 274 272 275 275 274 272 269 268 268 268 267 266 266 266 265 264 264 264 263 263 262
269 268 269 268 269 268 269 269 270 270 271 269 270 270 268 268 270 273 273 272 273 274 268 269 270 269 269 268 267 266 267 266 266 265 264 264 264 263 263 263 262 261 261
267 267 267 267 266 267 267 267 272 274 275 276 275 272 271 273 275 276 277 277 278 277 268 268 268 268 268 267 266 266 265 264 265 265 264 263 263 263 262 262 261 260 259
267 267 266 266 265 265 265 266 266 268 274 276 277 277 276 274 275 276 277 277 279 278 268 267 267 267 267 266 266 264 264 265 263 263 262 262 262 261 260 261 261 260 260
264 264 266 265 265 264 264 264 264 264 264 265 269 273 276 277 277 277 277 277 269 267 265 266 266 266 265 264 264 263 263 263 262 262 262 261 260 259 259 259 260 258 259
263 263 264 263 263 263 263 262 262 261 261 261 260 266 264 272 275 277 278 271 267 266 264 263 262 263 263 262 262 262 261 261 261 261 260 258 258 258 258 258 258 256 256
262 262 261 261 261 261 261 261 261 260 260 259 259 260 259 260 262 263 263 261 262 263 263 262 262 261 261 261 261 260 260 259 259 258 259 259 259 258 258 258 258 257 258
261 260 261 260 260 261 261 261 261 260 259 258 260 259 264 259 260 259 260 260 260 261 262 261 262 261 261 261 260 259 259 261 261 261 261 261 260 258 258 258 258 257 256
261 261 260 261 260 260 259 260 259 259 259 258 259 258 268 264 261 261 260 261 262 261 262 262 263 262 262 262 261 261 260 261 262 262 262 261 261 259 259 258 257 257 255
260 259 258 257 259 257 258 257 258 258 258 258 258 258 256 257 258 259 260 261 261 261 261 260 261 261 263 262 262 262 262 263 264 264 263 262 261 260 260 258 258 257 256
259 259 259 258 257 257 258 257 257 256 257 257 257 257 257 257 257 258 258 259 259 259 259 259 260 260 262 263 263 263 262 263 263 263 262 261 261 260 259 259 258 257 257
257 257 258 258 257 257 257 256 257 257 257 257 257 256 257 257 256 257 258 258 259 260 261 261 261 262 261 262 263 263 263 264 264 262 261 260 260 259 258 258 257 257 255
256 256 257 256 256 255 256 257 257 257 257 257 256 257 257 257 257 258 258 258 259 259 260 262 262 262 263 263 263 264 263 265 263 262 262 260 258 258 257 256 256 256 255
Wind_Speed
7 8 9 8 8 8 8 8 8 7 8 8 8 10 8 9 8 8 11 10 11 9 8 9 10 8 7 7 6 7 6 4 5 3 3 4 5 4 5 4 5 6 4
7 7 9 9 9 9 9 9 8 8 9 9 9 11 10 10 10 10 11 9 11 10 9 10 9 7 10 8 7 8 7 7 3 5 2 3 4 4 4 5 5 5 5
7 8 9 9 9 9 9 8 9 9 9 10 10 11 11 11 11 11 11 12 12 11 11 10 10 9 10 7 7 7 7 6 6 4 4 2 2 6 3 4 5 6 4
7 8 9 9 9 9 9 9 9 9 10 10 10 11 10 10 11 11 10 12 12 11 12 12 11 10 9 8 8 8 6 7 7 6 5 3 3 2 2 5 5 6 5
8 9 8 7 8 8 9 9 9 10 9 9 10 10 10 9 7 10 11 12 12 12 11 11 11 10 16 12 6 6 6 6 5 5 4 2 2 3 5 5 4 8 4
7 7 7 7 8 8 8 9 9 9 9 9 10 9 10 8 16 16 11 10 10 10 10 9 9 9 12 15 16 17 10 6 6 2 3 3 3 3 4 5 5 5 5
6 6 6 7 8 7 7 8 8 9 8 9 9 9 10 10 16 16 15 9 9 8 8 7 7 6 7 7 11 13 12 14 12 5 5 4 3 4 4 4 4 4 5
4 5 5 5 6 5 6 7 7 7 8 7 8 8 8 9 15 15 15 10 9 9 8 7 7 7 7 6 6 6 7 7 7 5 5 3 2 3 3 4 5 5 7
5 4 4 4 5 5 6 5 5 6 7 6 6 6 7 6 12 12 10 8 8 7 6 6 5 5 8 9 6 5 4 3 5 7 6 5 6 7 6 4 4 5 4
4 4 4 4 5 5 5 5 3 4 6 5 7 5 6 5 9 9 7 5 6 5 4 4 5 3 8 8 5 4 3 2 3 4 4 5 5 4 5 4 3 4 4
5 4 4 4 5 4 4 3 3 4 5 5 6 4 5 4 5 7 6 4 4 4 3 2 2 4 4 4 7 3 3 3 4 3 3 3 2 3 3 3 4 4 4
5 5 4 4 3 3 5 3 3 4 4 4 4 3 3 4 4 6 8 6 5 3 2 1 1 3 4 6 5 6 6 4 2 2 2 3 3 3 4 4 6 5 5
6 5 4 3 3 3 4 4 3 3 3 3 2 2 1 1 3 5 4 5 5 2 1 2 1 2 4 4 5 4 3 2 1 2 3 3 3 4 5 4 3 4 8
4 4 4 4 3 3 2 3 3 3 3 3 3 2 2 1 1 0 0 1 1 2 1 1 2 1 2 0 1 2 1 1 1 2 2 3 3 3 3 3 3 5 4
5 5 4 3 3 3 2 2 2 2 3 3 3 3 4 4 4 6 5 2 2 3 3 0 0 1 2 2 1 2 2 2 2 2 3 3 4 3 3 1 1 2 2
5 4 4 4 3 3 3 1 2 4 7 7 7 6 4 7 6 9 11 9 7 6 2 1 2 2 3 3 3 3 3 3 3 3 3 4 5 5 6 4 2 2 4
7 6 4 4 3 4 3 3 3 2 4 7 8 8 10 7 8 9 9 9 11 6 2 2 3 3 4 4 4 4 3 3 2 4 5 5 5 6 4 6 5 4 6
4 5 5 5 4 4 4 4 3 3 3 3 4 4 7 10 11 11 11 7 1 0 2 2 3 4 4 5 4 4 4 4 4 5 5 5 5 5 5 6 6 5 6
6 5 5 4 4 4 4 4 4 4 4 3 2 4 3 6 9 11 12 2 3 3 3 4 4 5 5 5 5 5 5 5 5 5 5 5 5 5 7 7 7 8 5
5 6 5 4 4 4 4 5 4 4 4 4 4 4 2 1 2 3 2 2 3 4 4 5 5 5 6 6 5 5 5 5 6 6 6 6 5 5 7 7 7 7 6
5 5 7 4 5 6 4 6 5 4 5 4 5 4 8 4 4 4 4 4 5 5 5 5 6 6 6 6 5 5 5 7 6 6 6 6 5 6 7 7 7 6 6
6 6 6 7 5 5 5 4 5 5 5 4 4 4 12 3 4 5 6 6 6 6 6 6 7 6 6 6 6 6 7 8 7 6 7 6 6 6 6 6 6 6 6
5 5 5 4 5 5 4 4 5 5 5 5 5 4 4 5 5 6 7 7 7 7 6 6 7 7 6 7 7 7 8 8 7 5 6 6 6 6 6 7 6 6 5
7 7 7 6 5 5 5 5 5 6 6 6 5 5 6 5 6 7 7 7 7 7 6 7 7 10 8 8 7 7 8 8 6 6 8 7 7 6 6 7 6 7 7
6 6 6 6 6 7 5 5 5 6 6 6 6 6 6 6 7 8 8 7 7 7 8 7 7 10 11 13 12 11 10 12 10 8 6 7 8 9 7 6 7 6 7
5 5 5 4 5 5 5 6 6 6 7 6 6 7 7 7 8 7 7 7 7 7 9 7 9 12 12 10 12 12 12 12 10 11 8 7 7 6 6 7 7 6 7
Wind_Direction
36 46 52 48 51 56 57 59 57 51 45 69 69 68 64 63 67 83 80 70 79 74 64 69 66 47 47 41 44 46 39 21 98 93 74 46 44 31 24 19 17 14 344
45 52 57 55 53 56 56 50 57 56 61 59 72 73 71 67 63 68 77 73 76 72 66 67 61 63 61 51 51 53 48 36 90 118 92 58 53 6 10 15 7 5 346
52 65 62 58 58 60 59 56 57 61 64 61 67 70 67 68 72 68 76 76 73 68 66 68 62 65 60 56 57 56 49 46 49 101 105 60 58 19 349 350 347 349 343
65 68 67 63 67 64 62 61 61 62 68 68 65 72 72 76 79 80 79 79 77 72 67 65 65 65 67 63 60 58 62 71 72 86 87 90 37 13 358 347 343 349 343
75 75 72 70 72 72 67 62 61 63 65 70 76 73 76 77 77 86 86 87 86 81 70 66 58 62 73 70 70 64 70 77 80 83 85 90 44 19 8 342 319 334 348
82 82 85 79 74 72 73 75 74 70 68 71 70 76 79 78 87 89 91 92 89 88 84 75 68 55 71 71 69 68 65 67 72 82 64 62 48 11 347 345 344 352 340
74 82 77 84 83 72 78 83 81 78 78 73 73 77 77 83 89 89 86 86 90 90 93 93 87 73 71 71 70 67 58 62 63 63 74 49 10 355 329 335 347 333 307
63 70 76 80 87 80 76 74 74 74 77 80 77 77 85 87 93 94 93 92 91 87 85 89 95 91 80 83 84 76 69 71 63 66 65 48 6 339 353 351 342 323 294
105 93 88 95 96 94 89 85 72 80 73 70 71 73 83 89 102 109 108 102 98 92 84 72 71 81 83 77 77 77 70 56 54 43 40 32 14 3 11 345 358 351 323
138 124 114 116 102 98 103 94 78 83 90 89 83 63 58 73 93 101 107 115 116 114 95 65 75 64 93 68 60 53 45 42 21 4 7 14 20 6 14 14 350 338 335
130 116 105 104 117 121 113 99 118 112 107 94 92 66 68 49 88 98 105 113 129 130 123 94 26 54 36 35 43 3 61 48 0 5 348 334 339 347 0 355 349 318 288
129 119 114 108 110 111 112 93 98 103 103 97 102 87 45 27 64 104 102 99 114 130 143 126 20 22 32 28 18 9 35 60 10 329 323 323 332 337 337 338 318 291 266
137 142 123 104 105 119 129 121 110 119 128 151 153 147 142 29 18 74 95 101 116 113 148 244 55 34 54 23 358 23 53 36 331 319 333 322 328 321 307 319 307 306 282
145 154 149 149 141 116 125 148 145 159 161 165 180 190 200 219 229 239 138 54 26 102 75 350 327 104 66 112 297 19 7 322 305 311 293 295 296 316 327 355 327 336 311
148 153 159 163 165 140 121 163 162 185 180 181 208 184 189 224 229 211 200 207 220 222 145 117 263 242 251 269 309 335 316 303 277 249 267 295 299 308 300 287 279 318 293
160 173 179 168 168 163 159 172 261 199 215 220 209 197 218 226 223 224 223 240 250 171 95 207 252 261 297 317 312 304 278 263 262 248 268 281 293 300 304 304 280 275 291
178 180 175 174 170 163 175 184 191 298 274 235 229 231 224 221 245 243 236 247 255 257 172 215 256 281 280 274 264 239 248 236 240 255 261 263 274 279 283 296 296 287 291
170 161 171 179 181 183 188 195 176 187 211 245 282 273 266 252 247 235 238 254 177 41 214 227 251 256 255 248 244 237 247 253 251 255 255 255 255 267 285 278 279 276 285
179 186 181 177 182 180 175 189 199 198 212 228 288 276 341 281 282 268 254 235 222 231 226 239 236 245 246 245 249 250 247 251 249 263 260 250 247 245 264 262 268 263 265
185 171 160 170 175 189 191 196 199 205 214 224 233 234 263 288 241 241 249 242 236 244 241 241 242 234 240 240 243 243 254 249 250 246 254 250 246 233 256 259 258 268 260
176 177 177 175 191 199 194 205 202 193 212 217 234 208 221 212 234 231 239 238 240 244 248 240 247 244 237 241 241 246 246 260 248 243 248 250 238 249 243 252 263 257 257
179 185 187 199 190 195 207 202 199 205 212 221 239 245 255 252 226 238 239 242 240 234 237 244 253 243 240 237 234 234 243 251 251 238 243 243 238 245 252 255 261 259 255
175 172 180 191 196 190 197 199 203 207 216 223 228 237 222 239 242 242 245 248 245 245 237 233 250 257 243 236 229 228 241 250 250 243 252 253 250 253 252 260 264 265 251
179 188 195 200 187 200 205 207 208 212 221 231 228 234 236 233 240 245 247 250 249 252 243 238 238 246 257 247 237 230 233 241 240 242 239 250 256 253 252 252 256 254 256
185 190 194 193 195 205 204 211 213 218 221 227 235 233 242 240 243 244 247 245 248 249 248 235 233 240 241 247 248 247 240 244 239 227 227 229 241 243 247 246 255 255 250
181 188 197 182 198 195 203 213 222 216 222 227 228 233 235 238 242 244 243 240 246 249 251 249 245 241 247 249 250 252 248 247 242 237 225 217 225 233 230 236 243 246 248